Regional Weather Roundup
Issued by NWS Wakefield, VA

Home | Current Version | Previous Version | Text Only | Print | Product List | Glossary On
Versions: 1 2 3 4 5 6 7 8 9 10 11 12 13 14 15 16 17 18 19 20 21 22 23 24 25 26 27
000
ASUS41 KAKQ 270715
RWRAKQ

REGIONAL WEATHER ROUNDUP
NATIONAL WEATHER SERVICE WAKEFIELD VA
300 AM EDT SAT MAY 27 2017

Note: "fair" indicates few or no clouds below 12,000 feet with no
significant weather and/or obstructions to visibility. * = Denotes
station may not report precipitation (e.g., rain,snow,etc.),
thunder or fog.

VAZ042-051-052>054-056-270800-
NORTHERN VIRGINIA

CITY           SKY/WX    TMP DP  RH WIND       PRES   REMARKS
WASH NATIONAL  CLOUDY    64  58  80 CALM      29.92S
DULLES         PTCLDY    57  54  89 CALM      29.93R
FORT BELVOIR   CLOUDY    58  56  94 CALM      29.92S
QUANTICO       CLOUDY    60  59  96 NW7       29.93S
FREDERICKSBRG* PTCLDY    57  57 100 CALM      29.92S
STAFFORD*      PTCLDY    53  53 100 CALM      29.97R
WARRENTON      CLOUDY    56  53  89 CALM      29.93R FOG
CULPEPER*      MOCLDY    56  56  99 CALM      29.94S
MANASSAS*      CLOUDY    57  56  96 S3        29.94R
LEESBURG*      CLOUDY    57  57 100 CALM      29.94R
WINCHESTER     MOCLDY    54  54 100 CALM      29.94R
FRONT ROYAL*   CLOUDY    55  55 100 S3        29.93R
LURAY*         SUNNY     54  54 100 CALM      29.95R
$$

VAZ048-049-060>072-079>083-270800-
CENTRAL AND SOUTH CENTRAL VIRGINIA

CITY           SKY/WX    TMP DP  RH WIND       PRES   REMARKS
RICHMOND       PTCLDY    59  56  89 CALM      29.91S
CHESTERFIELD*  NOT AVBL
PETERSBURG*    CLEAR     54  53  97 CALM      29.92S
HANOVER        PTCLDY    57  53  86 CALM      29.93R
TAPPAHANNOCK*  PTCLDY    57  57 100 CALM      29.92S
QUINTON*       FAIR      57  57 100 CALM      29.91R
CHARLOTTSVILLE CLOUDY    59  56  89 CALM      29.94R
GORDONSVILLE*  SUNNY     55  55  99 CALM      29.92S
ORANGE*        CLEAR     55  54  94 CALM      29.93S
LOUISA*        CLEAR     55  55 100 CALM      29.92S
BUMPASS*       FAIR      55  55 100 CALM      29.92S
FARMVILLE*     CLEAR     57  53  89 CALM      29.92S
CREWE*         FAIR      55  51  87 CALM      29.93R
FORT PICKETT*  FAIR      60  57  88 CALM      29.93S
CHASE CITY*    FAIR      58  57  94 CALM      29.93F
CLARKSVILLE*   FAIR      57  57 100 CALM      29.93S
SOUTH HILL*    CLEAR     58  58  99 CALM      29.98F
LAWRENCEVILLE* FAIR      58  57  95 CALM      29.92F
EMPORIA*       CLEAR     55  55 100 CALM      29.93F
$$

VAZ088>098-270800-
SOUTHEAST VIRGINIA

CITY           SKY/WX    TMP DP  RH WIND       PRES   REMARKS
NORFOLK        PTCLDY    66  58  75 CALM      29.91S
VIRGINIA BEACH PTCLDY    62  56  80 CALM      29.90F
NORFOLK NAVAL  CLEAR     63  57  81 CALM      29.92F
WEST POINT*    CLEAR     57  56  98 CALM      29.92S
SALUDA*        FAIR      58  58  99 CALM      29.90F
NEWPORT NEWS   CLEAR     59  57  93 CALM      29.90F
LANGLEY AFB    CLEAR     62  60  93 CALM      29.89F
FORT EUSTIS    PTCLDY    62  59  90 CALM      29.88F
WILLIAMSBURG*  CLEAR     63  63 100 CALM      29.91F
HR EXEC AP*    FAIR      55  52  88 CALM      29.90S
FRANKLIN*      CLEAR     58  56  94 CALM      29.92S
US460-WAKEFLD  PTCLDY    59  58  96 CALM      29.91F
$$

VAZ020-022-025-037-045-270800-
WEST CENTRAL AND SOUTHWEST VIRGINIA

CITY           SKY/WX    TMP DP  RH WIND       PRES   REMARKS
STAUNTON*      CLEAR     52  51  96 CALM      29.98S
WAYNESBORO*    CLOUDY    56  54  95 CALM      29.97S
HOT SPRINGS VA CLOUDY    55  45  67 W16       30.04S
LYNCHBURG      CLEAR     56  54  93 CALM      29.96S
DANVILLE       CLEAR     56  56 100 CALM      29.95S FOG
SOUTH BOSTON*  FAIR      56  55  96 CALM      29.94S
MARTINSVILLE   CLEAR     53  52  97 CALM      30.00R
ROANOKE        CLEAR     60  54  80 N3        29.98F
BLACKSBURG     PTCLDY    55  53  95 CALM      30.04F
DUBLIN*        CLOUDY    60  52  75 SW5       30.02F
MARION*        MOCLDY    59  54  84 CALM      30.05F
HILLSVILLE*    CLEAR     57  49  74 CALM      30.03S
RICHLANDS*     CLOUDY    64  56  76 SW6       30.03F
WISE*          CLOUDY    64  55  72 CALM      30.04F
ABINGDON*      CLOUDY    61  59  93 CALM      30.03F
$$

MDZ021>025-VAZ099-100-270800-
SOUTHERN MARYLAND AND THE DELMARVA PENINSULA

CITY           SKY/WX    TMP DP  RH WIND       PRES   REMARKS
PATUXENT RIVER PTCLDY    59  59 100 W5        29.91S
BAY BRIDGE APT MOCLDY    63  57  82 CALM      29.91S
LEONARDTOWN    MOCLDY    57  55  94 CALM      29.93S
DOVER          CLEAR     60  59  98 SW7       29.88S
GEORGETOWN     CLOUDY    64  54  69 W3        29.90S
EASTON         MOCLDY    63  56  79 CALM      29.94S
CAMBRIDGE      CLOUDY    61  57  88 CALM      29.90S
SALISBURY      MOCLDY    60  56  86 CALM      29.90S
OCEAN CITY     PTCLDY    60  53  77 NW3       29.90F
WALLOPS ISLAND CLEAR     62  56  80 W5        29.91S
ACCOMACK*      CLEAR     58  20  22 CALM      29.91F
$$

NCZ012>017-030>032-270800-
NORTH CENTRAL AND EASTERN NORTH CAROLINA

CITY           SKY/WX    TMP DP  RH WIND       PRES   REMARKS
ROANOKE RAPIDS FAIR      59  59 100 SW3       29.93S
RALEIGH        PTCLDY    64  59  83 CALM      29.95S
ELIZABETH CITY CLEAR     64  61  90 SW6       29.92F
AHOSKIE*       NOT AVBL
EDENTON*       CLEAR     69  64  82 CALM      29.93F
CURRITUCK*     CLEAR     64  62  94 CALM      29.93S
KILL DEVIL HLS CLEAR     68  61  77 CALM      29.92F
MANTEO         CLEAR     69  62  78 CALM      29.93F
CAPE HATTERAS  CLEAR     72  68  87 W6        29.95S
TARBORO*       NOT AVBL
GOLDSBORO      NOT AVBL
WASHINGTON     PTCLDY    64  58  80 SW3       29.95S
GREENVILLE     CLEAR     63  59  88 SW3       29.96F
NEW BERN       CLEAR     62  59  90 CALM      29.97S
WILMINGTON     CLEAR     67  61  81 SW3       29.98S
$$

VAZ048-270800-
ELSEWHERE

CITY           SKY/WX    TMP DP  RH WIND       PRES   REMARKS
HARRISBURG PA  CLEAR     57  52  83 CALM      29.90R
BALTIMORE      MOCLDY    58  56  93 CALM      29.91S
ANNAPOLIS      MOCLDY    62  58  86 CALM      29.90S
ANDREWS AFB    CLOUDY    59  55  85 CALM      29.91S
PHILADELPHIA   CLEAR     61  52  72 SW6       29.87S
HENDERSON NC   CLEAR     56  55  95 SW5       29.94S
GREENSBORO     PTCLDY    62  58  86 SW3       29.96S
ROCKY MOUNT    CLEAR     62  60  93 S5        29.94F
$$

VAZ100-270800-
MARINE

STATION/POSITION TIME  TEMP    WIND        PRES    WAVE   SWELL
                       AIR SEA DIR/SP/G            HT/PER HT/PER
                 (UTC) (F)     (DEG/KT/KT) (MB)    (FT/S) (FT/S)
CAPE MAY NJ      0648          290/  8/ 12   N/A
LEWES DE         0636          280/ 10/ 12   N/A
15NM E FENWICK I 0550   62 58  270/ 10/ 12 1012.4    3/ 8   3/ 8
WACHAPREAGUE VA  0648           CALM  /  2   N/A
THOMAS POINT MD  0700   64 64  310/  6/  6   N/A
GOOSES REEF MD   0650   67     330/  4/  4 1013.5R
COVE POINT MD    0648          320/  6/  7   N/A
SOLOMONS ISLAND  0648           CALM  /  1   N/A
BISHOPS HEAD MD  0648          300/  5/  6   N/A
PINEY POINT MD   0648             CALM       N/A
POTOMAC MD       0650   67     260/  4/  4 1012.0S
CAMBRIDGE MD     0630   63 68                N/A
LEWISETTA VA     0648          240/  2/  2   N/A
RAPPAHANNOCK LGT 0648           40/  5/  5   N/A
STINGRAY PT      0650   68      CALM  /  2 1012.3F
YORK RVR RNG VA  0648          210/  2/  2   N/A
YORKTOWN VA      0648          160/  2/  3   N/A
JAMESTOWN VA     0650   67     270/  2/  2   N/A
DOMINION TERM VA 0648          290/  3/  4   N/A
KIPTOPEKE VA     0636          150/  2/  2   N/A
CHES BAY BRIDGE  0648          250/  5/  6   N/A
CAPE HENRY VA    0648          240/  6/  7   N/A
WILLOUBY STN VA  0648          240/  4/  5   N/A
S CRANEY ISL VA  0648          260/  2/  2   N/A
CAPE HENRY BUOY  0642      63                N/A     2/ 8
1ST LANDING BUOY 0650   69                 1013.0F
CAPE CHARLES BUO 0651      63                N/A     1/ 8
64NM E OF VA BCH 0650   65 62  250/  6/  6 1013.6F   4/ 7   3/ 7
DUCK PIER NC     0648          240/  6/  8   N/A
44100 DUCK FRF   0635      65                N/A     2/ 8
44056 DUCK FRF   0630      63                N/A     1/ 9
OREGON INLET NC  0636          240/  7/  8   N/A
HATTERAS NC      0642          230/  6/  7   N/A
DIAMOND SHLS NC  0650   75 78  250/ 12/ 14 1014.2S   5/ 6   3/ 6
CAPE LOOKOUT NC  0600   72     250/  6/  7 1014.5F
$$




USA.gov is the U.S. government's official web portal to all federal, state and local government web resources and services.